FW1417 Weather Reports


Display with metric or nautical units.
time (UTC)temp
F
wind
direction
speed
MPH
gust
MPH
rain 1hr
in
rain 24hr
in
rain mn
in
humidity
%
barometer
mb
20260902202227 70 78 0.0 3.0 0.00 0.20 0.09 87 1018.6
20260902201727 70 65 2.0 3.0 0.01 0.20 0.09 87 1018.6
20260902201205 70 4 1.0 3.0 0.01 0.20 0.09 87 1018.8
20260902200227 70 0 1.0 6.0 0.06 0.20 0.09 86 1018.9
20260902195728 70 324 1.0 6.0 0.07 0.20 0.09 85 1018.9
20260902195227 70 326 2.0 5.0 0.08 0.20 0.09 85 1019.0
20260902194727 70 19 3.0 5.0 0.09 0.20 0.09 84 1019.0
20260902194227 70 28 2.0 8.0 0.09 0.20 0.09 84 1019.1
20260902193727 70 26 3.0 8.0 0.09 0.20 0.09 83 1019.1
20260902193228 70 22 3.0 8.0 0.09 0.20 0.09 82 1019.3
20260902192227 71 319 3.0 7.0 0.09 0.20 0.09 81 1019.4
20260902191727 72 0 3.0 7.0 0.08 0.19 0.08 80 1019.4
20260902190727 73 67 2.0 3.0 0.06 0.17 0.06 77 1019.4
20260902190226 73 106 0.0 2.0 0.03 0.14 0.03 76 1019.3
20260902185727 73 107 1.0 2.0 0.02 0.13 0.02 76 1019.1
20260902185227 73 132 1.0 3.0 0.01 0.12 0.01 75 1019.0
20260902183227 74 128 3.0 10.0 0.00 0.11 0.00 73 1018.9
20260902182727 74 151 1.0 6.0 0.00 0.11 0.00 72 1019.0
20260902182226 74 153 2.0 6.0 0.00 0.11 0.00 72 1019.0
20260902181727 74 184 3.0 6.0 0.00 0.11 0.00 72 1019.0
20260902181227 74 160 1.0 6.0 0.00 0.11 0.00 72 1019.1
20260902180227 74 93 3.0 8.0 0.00 0.11 0.00 72 1019.0
20260902175727 74 147 4.0 8.0 0.00 0.11 0.00 71 1019.1
20260902175227 74 164 1.0 6.0 0.00 0.11 0.00 72 1019.1
20260902174226 74 154 2.0 5.0 0.00 0.11 0.00 71 1019.2
20260902173727 74 163 1.0 5.0 0.00 0.11 0.00 71 1019.4
20260902173227 74 178 2.0 5.0 0.00 0.11 0.00 71 1019.3
20260902172727 74 80 2.0 7.0 0.00 0.11 0.00 71 1019.3
20260902172226 73 101 2.0 7.0 0.00 0.11 0.00 71 1019.3
20260902171727 73 146 2.0 5.0 0.00 0.11 0.00 71 1019.2
20260902171227 73 154 1.0 6.0 0.00 0.11 0.00 72 1019.3
20260902170726 73 113 1.0 7.0 0.00 0.11 0.00 72 1019.4
20260902170227 73 150 3.0 7.0 0.00 0.11 0.00 72 1019.5
20260902165726 73 171 1.0 3.0 0.00 0.11 0.00 72 1019.7
20260902164727 72 81 1.0 3.0 0.00 0.11 0.00 72 1019.8
20260902163727 72 75 2.0 7.0 0.00 0.11 0.00 72 1019.8
20260902163227 73 157 1.0 7.0 0.00 0.11 0.00 72 1019.8
20260902162726 72 121 1.0 6.0 0.00 0.11 0.00 72 1019.8
20260902162226 72 76 3.0 6.0 0.00 0.11 0.00 72 1019.7
20260902161727 72 121 2.0 3.0 0.00 0.11 0.00 72 1019.6
20260902161227 72 58 1.0 5.0 0.00 0.11 0.00 73 1019.6
20260902160227 72 100 1.0 6.0 0.00 0.12 0.00 73 1019.6
20260902155727 72 74 3.0 6.0 0.00 0.12 0.00 73 1019.7
20260902155226 72 151 1.0 6.0 0.00 0.12 0.00 73 1019.8
20260902154727 71 98 1.0 6.0 0.00 0.13 0.00 73 1019.9
20260902154226 72 107 2.0 6.0 0.00 0.13 0.00 73 1020.1
20260902153226 72 53 1.0 3.0 0.00 0.14 0.00 73 1020.1
20260902152727 71 74 2.0 3.0 0.00 0.15 0.00 74 1019.9
20260902152227 71 59 2.0 5.0 0.00 0.15 0.00 73 1019.8
20260902151227 71 90 1.0 5.0 0.00 0.16 0.00 74 1019.8
20260902150727 71 66 1.0 5.0 0.00 0.17 0.00 75 1019.9
20260902150226 71 51 1.0 5.0 0.00 0.17 0.00 75 1019.8
20260902145727 70 51 2.0 5.0 0.00 0.17 0.00 75 1019.9
20260902145227 70 65 1.0 5.0 0.00 0.17 0.00 75 1019.9
20260902144227 70 101 3.0 5.0 0.00 0.17 0.00 76 1020.0
20260902143726 70 86 1.0 3.0 0.00 0.17 0.00 76 1020.1
20260902143226 70 85 1.0 5.0 0.00 0.17 0.00 76 1020.2
20260902142227 70 88 2.0 5.0 0.00 0.17 0.00 76 1020.1
20260902141727 70 119 1.0 8.0 0.00 0.17 0.00 76 1020.1
20260902141226 70 53 2.0 8.0 0.00 0.17 0.00 77 1020.1
20260902140727 70 164 2.0 3.0 0.00 0.17 0.00 77 1020.0
20260902140227 69 53 1.0 3.0 0.00 0.17 0.00 78 1020.0
20260902135228 69 113 2.0 7.0 0.00 0.17 0.00 79 1020.0
20260902134726 69 74 2.0 7.0 0.00 0.17 0.00 80 1019.9
20260902134226 68 69 2.0 7.0 0.00 0.17 0.00 80 1019.9
20260902133726 68 40 2.0 6.0 0.00 0.17 0.00 81 1019.9
20260902133228 68 49 3.0 10.0 0.00 0.17 0.00 82 1019.6
20260902132727 68 252 2.0 10.0 0.00 0.17 0.00 83 1019.4
20260902132227 68 73 1.0 6.0 0.00 0.17 0.00 84 1019.4
20260902131726 68 96 3.0 6.0 0.00 0.17 0.00 85 1019.6
20260902131226 68 73 1.0 6.0 0.00 0.17 0.00 86 1019.6
20260902130726 68 99 2.0 6.0 0.00 0.17 0.00 86 1019.7
20260902125228 68 64 2.0 7.0 0.00 0.17 0.00 86 1019.5
20260902124726 68 51 2.0 7.0 0.00 0.17 0.00 87 1019.4
20260902123726 68 93 3.0 8.0 0.00 0.17 0.00 87 1019.4
20260902123227 68 89 2.0 8.0 0.00 0.17 0.00 87 1019.4
20260902122726 68 84 3.0 8.0 0.00 0.17 0.00 87 1019.2
20260902121726 68 171 3.0 10.0 0.00 0.17 0.00 88 1019.2
20260902121204 67 57 4.0 10.0 0.00 0.17 0.00 88 1019.3
20260902120726 67 76 3.0 8.0 0.00 0.17 0.00 88 1019.2
20260902120227 67 152 3.0 8.0 0.00 0.17 0.00 89 1019.1
20260902115726 67 87 2.0 5.0 0.00 0.17 0.00 89 1019.1
20260902115227 67 60 2.0 8.0 0.00 0.18 0.00 89 1019.2
20260902114726 67 69 1.0 8.0 0.00 0.19 0.00 90 1019.2
20260902113727 67 74 2.0 7.0 0.00 0.20 0.00 90 1019.1
20260902112726 67 58 2.0 9.0 0.00 0.20 0.00 91 1019.1
20260902112226 67 82 2.0 9.0 0.00 0.20 0.00 91 1019.0
20260902111726 67 19 3.0 9.0 0.00 0.20 0.00 91 1019.0
20260902111226 67 325 3.0 9.0 0.00 0.20 0.00 91 1019.0
20260902110726 67 350 3.0 8.0 0.00 0.20 0.00 91 1019.0
20260902110226 67 0 2.0 8.0 0.00 0.20 0.00 91 1019.1
20260902105726 67 310 5.0 8.0 0.00 0.20 0.00 91 1019.0
20260902105227 67 355 4.0 8.0 0.00 0.20 0.00 91 1019.1
20260902104226 67 59 3.0 9.0 0.00 0.20 0.00 91 1019.0
20260902103726 67 329 3.0 9.0 0.00 0.20 0.00 91 1019.0
20260902102726 67 17 5.0 8.0 0.00 0.20 0.00 91 1018.8
20260902101726 67 32 3.0 9.0 0.00 0.20 0.00 91 1018.7
20260902101225 67 5 5.0 9.0 0.00 0.20 0.00 91 1018.7
20260902100726 67 339 4.0 8.0 0.00 0.20 0.00 91 1018.6
20260902095726 67 11 2.0 9.0 0.00 0.20 0.00 91 1018.6
20260902095227 67 344 3.0 8.0 0.00 0.20 0.00 91 1018.5
20260902094726 67 77 2.0 8.0 0.00 0.20 0.00 91 1018.3
20260902094226 67 348 3.0 7.0 0.00 0.20 0.00 91 1018.4
20260902093726 67 24 3.0 8.0 0.00 0.20 0.00 91 1018.4
20260902092726 67 343 3.0 8.0 0.00 0.20 0.00 90 1018.4
20260902092226 67 5 3.0 8.0 0.00 0.20 0.00 90 1018.4
20260902090726 67 5 3.0 10.0 0.00 0.20 0.00 90 1018.4
20260902090226 67 300 4.0 10.0 0.00 0.20 0.00 90 1018.2
20260902085726 67 0 5.0 10.0 0.00 0.20 0.00 90 1018.1
20260902085226 67 0 6.0 10.0 0.00 0.20 0.00 89 1018.2
20260902084726 67 16 4.0 10.0 0.00 0.20 0.00 89 1018.3
20260902084226 67 42 5.0 10.0 0.00 0.20 0.00 89 1018.2
20260902083725 68 51 3.0 8.0 0.00 0.20 0.00 89 1018.3
20260902083226 68 16 3.0 12.0 0.00 0.20 0.00 88 1018.3
20260902082725 68 19 5.0 12.0 0.00 0.20 0.00 88 1018.2
20260902082227 68 306 5.0 10.0 0.00 0.20 0.00 88 1018.1
20260902081726 68 0 5.0 8.0 0.00 0.20 0.00 88 1018.1
20260902080726 69 26 3.0 8.0 0.00 0.21 0.00 87 1018.1
20260902080226 69 32 3.0 7.0 0.00 0.21 0.00 87 1018.0
20260902075226 69 23 2.0 8.0 0.00 0.21 0.00 87 1017.9
20260902074726 69 5 4.0 8.0 0.00 0.21 0.00 87 1017.8
20260902074226 69 10 2.0 5.0 0.00 0.21 0.00 87 1017.7
20260902073226 69 11 1.0 3.0 0.00 0.21 0.00 87 1017.6
20260902072727 69 47 0.0 2.0 0.00 0.21 0.00 87 1017.5
20260902072225 69 37 0.0 3.0 0.00 0.21 0.00 87 1017.5
20260902071726 69 37 0.0 3.0 0.00 0.21 0.00 87 1017.3
20260902070727 69 69 1.0 6.0 0.00 0.21 0.00 87 1017.4
20260902070227 69 54 2.0 8.0 0.00 0.21 0.00 87 1017.4
20260902065725 69 19 3.0 9.0 0.00 0.22 0.00 87 1017.3
20260902065226 69 11 3.0 9.0 0.00 0.22 0.00 87 1017.2
20260902063726 69 62 5.0 10.0 0.00 0.23 0.00 87 1017.4
20260902063226 69 17 4.0 9.0 0.00 0.23 0.00 86 1017.6
20260902062726 69 338 6.0 9.0 0.00 0.23 0.00 86 1017.6
20260902061226 69 71 2.0 3.0 0.00 0.23 0.00 86 1017.6
20260902060726 69 61 2.0 3.0 0.00 0.23 0.00 86 1017.8
20260902055726 69 49 2.0 5.0 0.00 0.23 0.00 86 1017.8
20260902055225 69 71 1.0 3.0 0.00 0.23 0.00 86 1017.7
20260902054726 69 69 1.0 3.0 0.00 0.23 0.00 86 1017.7
20260902054225 69 58 1.0 5.0 0.00 0.23 0.00 86 1017.8
20260902053725 69 16 2.0 5.0 0.00 0.23 0.00 86 1017.7
20260902053226 69 100 2.0 3.0 0.00 0.23 0.00 86 1017.8
20260902052727 69 53 2.0 3.0 0.00 0.23 0.00 86 1017.9
20260902052225 69 69 1.0 3.0 0.00 0.23 0.00 86 1018.0
20260902051725 69 10 1.0 5.0 0.00 0.23 0.00 86 1018.0
20260902051225 69 14 2.0 5.0 0.00 0.23 0.00 86 1017.9
20260902050725 69 65 2.0 3.0 0.00 0.24 0.00 87 1017.9
20260902045726 69 25 1.0 8.0 0.00 0.25 0.00 87 1017.8
20260902045225 69 350 3.0 8.0 0.00 0.25 0.00 87 1017.7
20260902044726 69 28 3.0 8.0 0.00 0.25 0.00 87 1017.5
20260902043726 69 26 3.0 9.0 0.00 0.26 0.00 87 1017.4
20260902043225 70 5 4.0 8.0 0.00 0.26 0.00 87 1017.4
20260902042728 70 346 2.0 8.0 0.00 0.26 0.00 87 1017.5
20260902041229 70 5 1.0 3.0 0.00 0.26 0.00 88 1017.5
20260902040728 70 34 1.0 3.0 0.00 0.26 0.00 88 1017.4
20260902040228 70 41 2.0 3.0 0.00 0.26 0.00 88 1017.4
20260902035727 70 347 0.0 3.0 0.00 0.26 0.26 88 1017.3
20260902035229 70 86 0.0 3.0 0.00 0.26 0.26 88 1017.1
20260902034728 70 328 2.0 3.0 0.00 0.26 0.26 88 1016.8
20260902034228 69 55 1.0 8.0 0.00 0.26 0.26 88 1016.7
20260902033728 69 47 3.0 8.0 0.00 0.26 0.26 88 1016.6
20260902033228 69 12 2.0 9.0 0.00 0.26 0.26 88 1016.6
20260902032729 69 39 2.0 9.0 0.00 0.26 0.26 89 1016.4
20260902032227 69 23 3.0 9.0 0.00 0.26 0.26 89 1016.2
20260902031228 69 87 2.0 7.0 0.00 0.26 0.26 88 1016.3
20260902030728 69 44 3.0 7.0 0.00 0.26 0.26 88 1016.5
20260902030227 69 28 4.0 9.0 0.00 0.26 0.26 88 1016.4
20260902025728 69 0 3.0 9.0 0.00 0.26 0.26 88 1016.5
20260902025227 69 64 3.0 9.0 0.00 0.26 0.26 88 1016.5
20260902024728 69 325 3.0 12.0 0.00 0.26 0.26 87 1016.7
20260902024228 69 256 3.0 12.0 0.00 0.26 0.26 87 1016.6
20260902023728 69 63 6.0 12.0 0.00 0.26 0.26 87 1016.6
20260902023228 70 23 5.0 14.0 0.00 0.26 0.26 87 1016.4
20260902022728 70 96 5.0 14.0 0.00 0.26 0.26 87 1016.4
20260902022228 70 23 6.0 14.0 0.00 0.26 0.26 87 1016.2
20260902021727 70 22 7.0 14.0 0.00 0.26 0.26 87 1016.2
20260902021228 70 5 6.0 13.0 0.00 0.26 0.26 87 1015.9
20260902020728 70 98 5.0 12.0 0.00 0.26 0.26 87 1015.7
20260902020228 70 49 5.0 12.0 0.00 0.26 0.26 87 1015.5
20260902015727 70 24 5.0 14.0 0.00 0.26 0.26 87 1015.5
20260902015228 70 12 6.0 14.0 0.00 0.26 0.26 87 1015.7
20260902014728 70 307 8.0 14.0 0.00 0.26 0.26 87 1015.3
20260902013728 71 320 6.0 12.0 0.00 0.26 0.26 87 1015.2
20260902013227 71 355 6.0 12.0 0.00 0.26 0.26 87 1015.2
20260902012228 71 346 5.0 14.0 0.00 0.26 0.26 87 1015.0
20260902011728 71 15 7.0 14.0 0.00 0.26 0.26 87 1014.8
20260902011228 71 38 6.0 13.0 0.00 0.26 0.26 87 1014.6
20260902010729 71 313 6.0 17.0 0.00 0.26 0.26 87 1014.8
20260902010227 71 5 9.0 17.0 0.00 0.26 0.26 86 1014.3
20260902005727 72 345 7.0 13.0 0.00 0.26 0.26 87 1014.2
20260902005228 72 16 6.0 12.0 0.00 0.26 0.26 87 1014.3
20260902004727 73 5 6.0 13.0 0.00 0.26 0.26 87 1014.4
20260902004228 73 5 5.0 13.0 0.00 0.26 0.26 87 1014.4
20260902003228 73 11 6.0 15.0 0.00 0.26 0.26 87 1014.3
20260902002229 74 334 5.0 12.0 0.01 0.26 0.26 87 1014.1
20260902001728 74 40 4.0 12.0 0.01 0.26 0.26 88 1014.0
20260902001229 74 39 6.0 12.0 0.01 0.26 0.26 87 1014.2
20260902000728 75 40 5.0 12.0 0.01 0.26 0.26 88 1014.1
20260902000228 75 0 5.0 12.0 0.01 0.26 0.26 88 1014.0
20260901235727 76 17 4.0 8.0 0.02 0.26 0.26 88 1014.0
20260901235227 76 9 3.0 8.0 0.02 0.26 0.26 88 1014.0
20260901234227 76 346 5.0 12.0 0.04 0.26 0.26 87 1014.0
20260901233727 77 13 5.0 12.0 0.05 0.26 0.26 87 1013.7
20260901233227 77 350 7.0 12.0 0.05 0.26 0.26 87 1013.7
20260901231728 78 140 1.0 3.0 0.05 0.25 0.25 87 1013.9
20260901231228 78 150 1.0 3.0 0.05 0.25 0.25 86 1013.8
20260901230727 78 135 1.0 3.0 0.07 0.25 0.25 86 1013.6
20260901230228 78 146 0.0 3.0 0.09 0.25 0.25 86 1013.1
20260901225728 78 179 1.0 5.0 0.09 0.24 0.24 85 1013.2
20260901224728 79 216 5.0 9.0 0.08 0.23 0.23 84 1013.1
20260901224227 79 180 2.0 7.0 0.07 0.22 0.22 84 1013.1
20260901223727 79 130 2.0 3.0 0.06 0.21 0.21 84 1013.3
20260901223228 80 78 2.0 6.0 0.06 0.21 0.21 84 1013.1
20260901222727 80 47 1.0 6.0 0.05 0.20 0.20 83 1013.0
20260901222227 80 86 1.0 3.0 0.05 0.20 0.20 83 1012.8
20260901221227 81 109 2.0 3.0 0.05 0.20 0.20 82 1012.7
20260901220729 81 0 1.0 6.0 0.03 0.18 0.18 81 1012.8
20260901220227 81 55 1.0 6.0 0.01 0.16 0.16 80 1012.6
20260901215727 81 68 2.0 6.0 0.00 0.15 0.15 79 1012.7
20260901215227 82 54 1.0 6.0 0.00 0.15 0.15 78 1012.8
20260901214727 82 29 3.0 6.0 0.00 0.15 0.15 78 1012.8
20260901214227 82 13 3.0 7.0 0.00 0.15 0.15 77 1012.8
20260901213727 82 76 3.0 7.0 0.00 0.15 0.15 77 1012.6
20260901213227 82 78 1.0 3.0 0.00 0.15 0.15 76 1012.6
20260901212727 82 155 2.0 3.0 0.00 0.15 0.15 76 1012.6
20260901212227 82 78 2.0 3.0 0.00 0.15 0.15 75 1012.6
20260901211727 83 38 1.0 3.0 0.00 0.15 0.15 76 1012.7
20260901211227 83 9 2.0 3.0 0.00 0.15 0.15 75 1012.7
20260901210727 83 51 2.0 3.0 0.00 0.15 0.15 75 1012.8
20260901210227 83 30 2.0 3.0 0.00 0.15 0.15 74 1012.7
20260901205727 84 79 2.0 3.0 0.00 0.15 0.15 73 1012.7
20260901205227 84 73 1.0 3.0 0.00 0.15 0.15 73 1012.7
20260901204727 84 89 1.0 3.0 0.00 0.15 0.15 73 1012.8
20260901204227 84 88 2.0 3.0 0.00 0.15 0.15 73 1012.7
20260901203727 84 68 1.0 3.0 0.00 0.15 0.15 73 1012.8
20260901203228 84 89 2.0 3.0 0.00 0.15 0.15 73 1012.8
20260901202728 84 69 1.0 3.0 0.00 0.15 0.15 73 1012.8